Regional Weather Roundup
Issued by NWS

Home | Current Version | Previous Version | Text Only | Print | Product List | Glossary Off
Versions: 1 2 3 4 5 6 7 8 9 10 11 12 13 14 15 16 17 18 19 20 21 22 23 24 25 26 27 28 29 30 31 32 33 34 35 36 37 38 39 40 41 42 43 44 45 46 47 48 49 50

000
ASUS43 KIND 280109
RWRIN

WEATHER ROUNDUP FOR INDIANA
NATIONAL WEATHER SERVICE INDIANAPOLIS IN
900 PM EDT WED MAY 27 2015

NOTE: "FAIR" INDICATES FEW OR NO CLOUDS BELOW 12,000 FEET WITH NO
SIGNIFICANT WEATHER AND/OR OBSTRUCTIONS TO VISIBILITY.

* - STATION DOES NOT REPORT WEATHER SUCH AS PRECIPITATION OR FOG.

+ - STATION NOT QUALITY CONTROLLED BY THE NATIONAL WEATHER SERVICE.
    USE DATA WITH CAUTION...ESPECIALLY DEWPOINT AND RELATIVE
    HUMIDITY OBSERVATIONS.

INZ001>003-010>013-019-020-280200-
NORTHWEST INDIANA

CITY           SKY/WX    TMP DP  RH WIND       PRES   REMARKS
GARY /AIRPORT/ CLEAR     66  57  72 N6        30.05S
KNOX *+        CLEAR     64  54  68 N8        30.07R
LA PORTE +     CLEAR     66  56  70 NW6       30.08R
MICHIGAN CITY+ CLEAR     63  54  72 CALM      30.08R
MONTICELLO +   CLEAR     71  60  67 N10       30.06R
RENSSELAER +   CLEAR     72  57  60 NW3       30.07R
VALPARAISO     CLEAR     67  56  67 N3        30.08R

$$

LMZ046-743>745-280200-
SOUTHERN LAKE MICHIGAN

STATION/POSITION TIME  TEMP    WIND        PRES    WAVE
                       AIR SEA DIR/SP/G            HT
                 (UTC) (F)     (DEG/KT/KT) (MB)    (FT)
BURNS HARBOR     0100   63      60/  6/  7 1018.6S
MICHIGAN CITY    0100   61      10/  5/  6   N/A
5NW MICH CITY    0100   57 53   90/  2/  2   N/A     1

$$

INZ004-005-014>016-021>024-280200-
NORTH CENTRAL INDIANA

CITY           SKY/WX    TMP DP  RH WIND       PRES   REMARKS
ELKHART        CLEAR     66  55  68 NW9       30.07R
GOSHEN         CLEAR     64  58  80 W7        30.05R
LOGANSPORT +   PTCLDY    70  55  60 W3        30.06S
PERU/GRISSOM   PTCLDY    70  63  79 W5        30.05R
ROCHESTER +    PTCLDY    70  59  68 NW3       30.07R
SOUTH BEND     CLEAR     65  57  75 NW7       30.07R
WARSAW +       CLEAR     66  57  72 NW3       30.06R

$$

INZ006>009-017-018-025>027-280200-
NORTHEAST INDIANA

CITY           SKY/WX    TMP DP  RH WIND       PRES   REMARKS
ANGOLA *+      CLOUDY    70  61  73 W6        30.04R
AUBURN +       PTCLDY    70  57  64 NW5       30.05R
FORT WAYNE     MOCLDY    69  64  84 SW7       30.04S
HUNTINGTON +   PTCLDY    68  63  84 SW6       30.04R

$$

INZ028-029-035-036-043>045-051>053-280200-
WEST CENTRAL INDIANA

CITY           SKY/WX    TMP DP  RH WIND       PRES   REMARKS
CRAWFORDSVL +  PTCLDY    70  56  61 W3        30.08R
GREENCASTLE +  CLOUDY    72  59  64 CALM      30.09R
LAFAYETTE      CLEAR     71  57  61 NW6       30.06R
TERRE HAUTE    MOCLDY    78  59  51 NW6       30.07R

$$

INZ030>032-037>040-046>048-054>057-064-065-280200-
CENTRAL INDIANA

CITY           SKY/WX    TMP DP  RH WIND       PRES   REMARKS
CP ATTERBURY + CLOUDY    72  64  78 S6        30.08S HAZE
FISHERS *+     CLOUDY    68  66  94 SW3       30.08
FRANKFORT +    PTCLDY    72  64  75 W5        30.09R
GREENWOOD *+   CLOUDY    73  61  64 NW7       30.08R
INDIANAPOLIS   LGT RAIN  68  64  87 W13       30.07R FOG
-EAGLE CREEK   CLOUDY    69  64  84 VRB3      30.07S
KOKOMO *+      PTCLDY    72  64  78 SW7       30.06R
MARION +       PTCLDY    73  60  63 W7        30.06R
MT COMFORT *+  CLOUDY    70  61  73 W8        30.09R
SHELBYVILLE    CLOUDY    76  66  71 SW7       30.06R
ZIONSVILLE +   MOCLDY    71  64  78 SW6       30.08S

$$

INZ033-034-041-042-049-050-058-059-280200-
EAST CENTRAL INDIANA

CITY           SKY/WX    TMP DP  RH WIND       PRES   REMARKS
MUNCIE         MOCLDY    71  64  78 W6        30.06S

$$

INZ060-061-067>069-081>083-085>088-280200-
SOUTHWEST INDIANA

CITY           SKY/WX    TMP DP  RH WIND       PRES   REMARKS
EVANSVILLE     CLOUDY    73  63  70 S5        30.10S
HUNTINGBURG *+ CLOUDY    72  63  73 S8        30.11S
WASHINGTON +   CLOUDY    74  60  62 S8        30.08R

$$

INZ062-063-066-070>080-084-089>092-280200-
SOUTH CENTRAL AND SOUTHEAST INDIANA

CITY           SKY/WX    TMP DP  RH WIND       PRES   REMARKS
BLOOMINGTON    CLOUDY    75  62  64 S9        30.09R
MADISON *+     CLOUDY    68  61  77 S9        30.13S
NORTH VERNON + CLOUDY    72  64  78 S8        30.10S
SEYMOUR +      CLOUDY    73  64  73 S9        30.09R

$$



USA.gov is the U.S. government's official web portal to all federal, state and local government web resources and services.